Regional Weather Roundup
Issued by NWS Goodland, KS

Home | Current Version | Previous Version | Graphics & Text | Print | Product List | Glossary On
Versions: 1 2 3 4 5 6 7 8 9 10 11 12 13 14 15 16 17 18 19 20 21 22 23 24 25 26 27 28 29 30 31 32 33 34 35 36 37 38 39 40 41 42 43 44 45 46 47 48 49 50
000
ASUS43 KGLD 162059
RWRGLD

GOODLAND FORECAST AREA HOURLY WEATHER ROUNDUP
NATIONAL WEATHER SERVICE GOODLAND KS
200 PM MST SAT DEC 16 2017

...OFFICIAL OBSERVATIONS...

CITY           SKY/WX    TMP DP  RH WIND       PRES   REMARKS
GOODLAND KS    SUNNY     53  18  25 NE18G28   29.73S
HILL CITY KS   SUNNY     54  18  24 E13       29.76R
IMPERIAL NEB   CLOUDY    50  28  42 NE21      29.81R
MCCOOK NEB     CLOUDY    53  25  33 NE22G29   29.78R
AKRON CO       CLOUDY    46  20  35 NE17      29.79S
BURLINGTON CO  SUNNY     52  18  26 NE20G28   29.74R
LIMON CO       SUNNY     50  12  21 NE17      29.76S
$$

...UNOFFICIAL OBSERVATIONS...

CITY           SKY/WX    TMP DP  RH WIND       PRES   REMARKS
LENORA KS        N/A     55  32  41 E10         N/A
NORTON KS      SUNNY     55  12  18 NE16G23   29.74
SHARON SPRINGS   N/A     57  18  21 NE20        N/A
TRENTON NEB      N/A     52  32  46 NE13        N/A
KIT CARSON CO    N/A     53  19  26 MISG        N/A
YUMA CO        FAIR      46  21  36 NE16      29.78S
$$




USA.gov is the U.S. government's official web portal to all federal, state and local government web resources and services.